sat.trackr.live / text

‹ back to catalog

ONEWEB-0143

NORAD 47289 · 2020-100AH

PAYLOAD ACTIVE UNKNOWN

§ Identity

Operator
Country
UK
Launch date
2020-12-18
Launch site
VOSTO
Launch vehicle
Mass (kg)
RCS (m²)

Purposes: comms

External: N2YO · Heavens-Above · Gunter

§ Orbital elements

Epoch: 2026-09-08T17:19:49.438272Z

Period
109.72 min
Inclination
87.8994°
Eccentricity
0.0001807
Mean motion
13.12443806 rev/d
Perigee alt
1,212.3 km
Apogee alt
1,215.1 km
Semi-major
7,591.9 km
B*
-1.0640e-3
RAAN
334.0809°
Arg perigee
102.1733°
Mean anomaly
257.9599°
Rev number
27,560

§ Raw data

ONEWEB-01431 47289U 20100AH  26251.72209998 -.00000370  00000+0 -10640-2 0  99992 47289  87.8994 334.0809 0001807 102.1733 257.9599 13.12443806275605

JSON: /api/v1/satellites/47289 · /tle

For live sub-satellite position, see the globe view (requires WebGL).

§ Visibility from observer

Set your observer location to see the next 7 days of passes ≥ 10°. The values pass through the URL so the page stays shareable.

No JS? Fill the form by hand. The geolocation button needs JavaScript.